| time (UTC) | temp C | wind direction | speed KPH | gust KPH | rain 1hr cm | rain 24hr cm | rain mn cm | humidity % | barometer mb |
| 20260906113630 | 22 | 266 | 0.0 | 0.0 | 0.00 | 0.00 | 0.08 | 99 | 1014.3 |
| 20260906113130 | 22 | 265 | 0.0 | 1.6 | 0.00 | 0.00 | 0.08 | 99 | 1014.1 |
| 20260906112630 | 22 | 314 | 0.0 | 0.0 | 0.00 | 0.00 | 0.08 | 99 | 1014.3 |
| 20260906112129 | 22 | 314 | 0.0 | 0.0 | 0.00 | 0.00 | 0.08 | 99 | 1014.3 |
| 20260906111616 | 22 | 351 | 0.0 | 0.0 | 0.03 | 0.00 | 0.08 | 99 | 1013.9 |
| 20260906111116 | 22 | 351 | 0.0 | 0.0 | 0.03 | 0.00 | 0.08 | 99 | 1014.3 |
| 20260906110615 | 22 | 351 | 0.0 | 0.0 | 0.03 | 0.00 | 0.08 | 99 | 1014.2 |
| 20260906110321 | 22 | 351 | 0.0 | 0.0 | 0.03 | 0.00 | 0.08 | 99 | 1014.1 |
| 20260906105559 | 22 | 351 | 0.0 | 0.0 | 0.05 | 0.00 | 0.08 | 99 | 1014.1 |
| 20260906105059 | 22 | 345 | 1.6 | 1.6 | 0.05 | 0.00 | 0.08 | 99 | 1014.2 |
| 20260906104559 | 22 | 339 | 0.0 | 1.6 | 0.08 | 0.00 | 0.08 | 99 | 1014.3 |
| 20260906104059 | 22 | 264 | 0.0 | 1.6 | 0.08 | 0.00 | 0.08 | 99 | 1014.5 |
| 20260906103818 | 22 | 312 | 0.0 | 0.0 | 0.08 | 0.00 | 0.08 | 99 | 1014.4 |
| 20260906103059 | 23 | 43 | 1.6 | 1.6 | 0.08 | 0.00 | 0.08 | 99 | 1014.6 |
| 20260906102559 | 23 | 325 | 0.0 | 3.2 | 0.08 | 0.00 | 0.08 | 99 | 1014.5 |
| 20260906102321 | 23 | 222 | 0.0 | 3.2 | 0.08 | 0.00 | 0.08 | 98 | 1014.7 |
| 20260906101559 | 23 | 174 | 1.6 | 3.2 | 0.05 | 0.00 | 0.05 | 98 | 1014.6 |
| 20260906101044 | 23 | 104 | 1.6 | 3.2 | 0.05 | 0.00 | 0.05 | 98 | 1014.8 |
| 20260906100544 | 23 | 215 | 0.0 | 4.8 | 0.05 | 0.00 | 0.05 | 97 | 1014.6 |
| 20260906100030 | 23 | 313 | 1.6 | 3.2 | 0.03 | 0.00 | 0.03 | 97 | 1014.7 |
| 20260906095530 | 24 | 109 | 0.0 | 3.2 | 0.03 | 0.00 | 0.03 | 97 | 1014.6 |
| 20260906095250 | 24 | 298 | 0.0 | 1.6 | 0.00 | 0.00 | 0.00 | 95 | 1014.7 |
| 20260906094529 | 24 | 248 | 1.6 | 6.4 | 0.00 | 0.00 | 0.00 | 94 | 1014.4 |
| 20260906094029 | 24 | 287 | 0.0 | 1.6 | 0.00 | 0.00 | 0.00 | 95 | 1014.1 |
| 20260906093529 | 24 | 281 | 0.0 | 0.0 | 0.00 | 0.00 | 0.00 | 96 | 1014.1 |
| 20260906093030 | 25 | 281 | 0.0 | 0.0 | 0.00 | 0.00 | 0.00 | 95 | 1013.7 |
| 20260906092751 | 25 | 264 | 0.0 | 0.0 | 0.00 | 0.00 | 0.00 | 95 | 1013.6 |
| 20260906092029 | 25 | 264 | 0.0 | 0.0 | 0.00 | 0.00 | 0.00 | 94 | 1013.4 |
| 20260906091529 | 25 | 264 | 0.0 | 0.0 | 0.00 | 0.00 | 0.00 | 93 | 1013.5 |
| 20260906091029 | 25 | 263 | 0.0 | 1.6 | 0.00 | 0.00 | 0.00 | 91 | 1013.4 |
| 20260906090735 | 25 | 264 | 0.0 | 0.0 | 0.00 | 0.00 | 0.00 | 90 | 1013.7 |
| 20260906090000 | 25 | 321 | 0.0 | 0.0 | 0.00 | 0.00 | 0.00 | 90 | 1013.5 |
| 20260906085500 | 25 | 327 | 0.0 | 0.0 | 0.00 | 0.00 | 0.00 | 90 | 1013.2 |
| 20260906085000 | 25 | 227 | 1.6 | 3.2 | 0.00 | 0.00 | 0.00 | 90 | 1013.4 |
| 20260906084459 | 26 | 293 | 0.0 | 1.6 | 0.00 | 0.00 | 0.00 | 90 | 1013.5 |
| 20260906083959 | 26 | 287 | 0.0 | 1.6 | 0.00 | 0.00 | 0.00 | 91 | 1013.5 |
| 20260906083459 | 26 | 309 | 1.6 | 6.4 | 0.00 | 0.00 | 0.00 | 91 | 1013.7 |
| 20260906082959 | 26 | 137 | 1.6 | 4.8 | 0.00 | 0.00 | 0.00 | 93 | 1013.7 |
| 20260906082718 | 26 | 254 | 1.6 | 3.2 | 0.00 | 0.00 | 0.00 | 94 | 1013.7 |
| 20260906082219 | 25 | 206 | 1.6 | 1.6 | 0.00 | 0.00 | 0.00 | 94 | 1013.7 |
| 20260906081720 | 25 | 249 | 0.0 | 0.0 | 0.00 | 0.00 | 0.00 | 94 | 1013.7 |
| 20260906080959 | 25 | 248 | 0.0 | 3.2 | 0.00 | 0.00 | 0.00 | 94 | 1013.8 |
| 20260906080459 | 25 | 299 | 0.0 | 3.2 | 0.00 | 0.00 | 0.00 | 95 | 1013.9 |
| 20260906075944 | 25 | 255 | 0.0 | 1.6 | 0.00 | 0.00 | 0.00 | 95 | 1014.0 |
| 20260906075445 | 25 | 248 | 0.0 | 1.6 | 0.00 | 0.00 | 0.00 | 96 | 1014.0 |
| 20260906074944 | 25 | 318 | 0.0 | 0.0 | 0.00 | 0.00 | 0.00 | 97 | 1014.0 |
| 20260906074444 | 25 | 276 | 0.0 | 0.0 | 0.00 | 0.00 | 0.00 | 98 | 1014.0 |
| 20260906073944 | 25 | 274 | 0.0 | 0.0 | 0.00 | 0.00 | 0.00 | 99 | 1014.1 |
| 20260906073703 | 24 | 234 | 0.0 | 0.0 | 0.00 | 0.00 | 0.00 | 99 | 1014.0 |
| 20260906072944 | 24 | 249 | 0.0 | 0.0 | 0.00 | 0.00 | 0.00 | 99 | 1013.9 |
| 20260906072444 | 24 | 249 | 0.0 | 0.0 | 0.00 | 0.00 | 0.00 | 99 | 1013.7 |
| 20260906071944 | 24 | 251 | 0.0 | 0.0 | 0.00 | 0.00 | 0.00 | 99 | 1013.7 |
| 20260906071703 | 24 | 251 | 0.0 | 0.0 | 0.00 | 0.00 | 0.00 | 99 | 1013.7 |
| 20260906070944 | 24 | 251 | 0.0 | 0.0 | 0.00 | 0.00 | 0.00 | 99 | 1014.0 |
| 20260906070444 | 24 | 251 | 0.0 | 0.0 | 0.00 | 0.00 | 0.00 | 99 | 1013.9 |
| 20260906065930 | 24 | 251 | 0.0 | 0.0 | 0.00 | 0.00 | 0.00 | 99 | 1014.0 |
| 20260906065430 | 24 | 251 | 0.0 | 0.0 | 0.00 | 0.00 | 0.00 | 99 | 1013.8 |
| 20260906064930 | 24 | 251 | 0.0 | 0.0 | 0.00 | 0.00 | 0.00 | 99 | 1013.8 |
| 20260906064430 | 23 | 251 | 0.0 | 0.0 | 0.00 | 0.00 | 0.00 | 99 | 1014.1 |
| 20260906063930 | 23 | 251 | 0.0 | 0.0 | 0.00 | 0.00 | 0.00 | 99 | 1014.1 |
| 20260906063430 | 24 | 251 | 0.0 | 0.0 | 0.00 | 0.00 | 0.00 | 99 | 1013.9 |
| 20260906062930 | 24 | 251 | 0.0 | 0.0 | 0.00 | 0.00 | 0.00 | 99 | 1014.3 |
| 20260906062430 | 24 | 251 | 0.0 | 0.0 | 0.00 | 0.00 | 0.00 | 99 | 1014.0 |
| 20260906061930 | 23 | 251 | 0.0 | 0.0 | 0.00 | 0.00 | 0.00 | 99 | 1014.2 |
| 20260906061430 | 23 | 251 | 0.0 | 0.0 | 0.00 | 0.00 | 0.00 | 99 | 1014.3 |
| 20260906060915 | 24 | 251 | 0.0 | 0.0 | 0.00 | 0.00 | 0.00 | 99 | 1014.6 |
| 20260906060415 | 24 | 251 | 0.0 | 0.0 | 0.00 | 0.00 | 0.00 | 99 | 1014.4 |
| 20260906055900 | 23 | 251 | 0.0 | 0.0 | 0.00 | 0.00 | 0.00 | 99 | 1014.6 |
| 20260906055400 | 23 | 252 | 0.0 | 0.0 | 0.00 | 0.00 | 0.00 | 99 | 1014.3 |
| 20260906054900 | 23 | 252 | 0.0 | 0.0 | 0.00 | 0.00 | 0.00 | 99 | 1014.4 |
| 20260906054620 | 24 | 252 | 0.0 | 0.0 | 0.00 | 0.00 | 0.00 | 99 | 1014.4 |
| 20260906053900 | 23 | 252 | 0.0 | 0.0 | 0.00 | 0.00 | 0.00 | 99 | 1014.5 |
| 20260906053400 | 23 | 252 | 0.0 | 0.0 | 0.00 | 0.00 | 0.00 | 99 | 1014.5 |
| 20260906052900 | 23 | 252 | 0.0 | 0.0 | 0.00 | 0.00 | 0.00 | 99 | 1014.4 |
| 20260906052400 | 23 | 252 | 0.0 | 0.0 | 0.00 | 0.00 | 0.00 | 99 | 1014.6 |
| 20260906051900 | 23 | 252 | 0.0 | 0.0 | 0.00 | 0.00 | 0.00 | 99 | 1014.6 |
| 20260906051400 | 24 | 252 | 0.0 | 0.0 | 0.00 | 0.00 | 0.00 | 99 | 1014.6 |
| 20260906050900 | 24 | 252 | 0.0 | 0.0 | 0.00 | 0.00 | 0.00 | 99 | 1014.7 |
| 20260906050345 | 24 | 252 | 0.0 | 0.0 | 0.00 | 0.00 | 0.00 | 99 | 1014.5 |
| 20260906045845 | 24 | 252 | 0.0 | 0.0 | 0.00 | 0.00 | 0.00 | 99 | 1014.8 |
| 20260906045345 | 24 | 252 | 0.0 | 0.0 | 0.00 | 0.00 | 0.00 | 99 | 1014.7 |
| 20260906044845 | 24 | 252 | 0.0 | 0.0 | 0.00 | 0.00 | 0.00 | 98 | 1014.8 |
| 20260906044603 | 24 | 252 | 0.0 | 0.0 | 0.00 | 0.00 | 0.00 | 98 | 1014.8 |
| 20260906043845 | 24 | 252 | 0.0 | 0.0 | 0.00 | 0.00 | 0.00 | 98 | 1014.6 |
| 20260906043344 | 24 | 252 | 0.0 | 0.0 | 0.00 | 0.00 | 0.00 | 98 | 1014.6 |
| 20260906042844 | 24 | 252 | 0.0 | 0.0 | 0.00 | 0.00 | 0.00 | 98 | 1014.7 |
| 20260906042344 | 24 | 252 | 0.0 | 0.0 | 0.00 | 0.00 | 0.00 | 98 | 1014.8 |
| 20260906041844 | 24 | 252 | 0.0 | 0.0 | 0.00 | 0.00 | 0.00 | 97 | 1014.8 |
| 20260906041344 | 24 | 252 | 0.0 | 0.0 | 0.00 | 0.00 | 0.00 | 97 | 1014.6 |
| 20260906040844 | 24 | 252 | 0.0 | 0.0 | 0.00 | 0.00 | 0.00 | 97 | 1014.7 |
| 20260906040330 | 24 | 252 | 0.0 | 0.0 | 0.00 | 0.00 | 0.00 | 96 | 1014.6 |
| 20260906035829 | 24 | 252 | 0.0 | 0.0 | 0.00 | 0.00 | 0.00 | 96 | 1014.6 |
| 20260906035330 | 25 | 252 | 0.0 | 0.0 | 0.00 | 0.00 | 0.00 | 96 | 1014.6 |
| 20260906035049 | 25 | 252 | 0.0 | 0.0 | 0.00 | 0.00 | 0.00 | 96 | 1014.5 |
| 20260906034329 | 25 | 252 | 0.0 | 0.0 | 0.00 | 0.00 | 0.00 | 95 | 1014.5 |
| 20260906033829 | 25 | 252 | 0.0 | 0.0 | 0.00 | 0.00 | 0.00 | 95 | 1014.6 |
| 20260906033329 | 25 | 252 | 0.0 | 0.0 | 0.00 | 0.00 | 0.00 | 95 | 1014.7 |
| 20260906033049 | 25 | 252 | 0.0 | 0.0 | 0.00 | 0.00 | 0.00 | 95 | 1014.6 |
| 20260906032550 | 25 | 252 | 0.0 | 0.0 | 0.00 | 0.00 | 0.00 | 95 | 1014.5 |
| 20260906031829 | 25 | 252 | 0.0 | 0.0 | 0.00 | 0.00 | 0.00 | 96 | 1014.5 |
| 20260906031315 | 25 | 252 | 0.0 | 0.0 | 0.00 | 0.00 | 0.00 | 96 | 1014.6 |
| 20260906030814 | 25 | 252 | 0.0 | 0.0 | 0.00 | 0.00 | 0.00 | 96 | 1014.3 |
| 20260906030300 | 25 | 252 | 0.0 | 0.0 | 0.00 | 0.00 | 0.00 | 96 | 1014.3 |
| 20260906030018 | 25 | 252 | 0.0 | 0.0 | 0.00 | 0.00 | 0.00 | 96 | 1014.5 |
| 20260906025520 | 25 | 252 | 0.0 | 0.0 | 0.00 | 0.00 | 0.00 | 95 | 1014.4 |
| 20260906024759 | 25 | 252 | 0.0 | 0.0 | 0.00 | 0.00 | 0.00 | 95 | 1014.4 |
| 20260906024521 | 25 | 252 | 0.0 | 0.0 | 0.00 | 0.00 | 0.00 | 94 | 1014.3 |
| 20260906023759 | 25 | 252 | 0.0 | 0.0 | 0.00 | 0.00 | 0.00 | 94 | 1014.4 |
| 20260906023259 | 25 | 252 | 0.0 | 0.0 | 0.00 | 0.00 | 0.00 | 93 | 1014.3 |
| 20260906023020 | 25 | 252 | 0.0 | 0.0 | 0.00 | 0.00 | 0.00 | 93 | 1014.2 |
| 20260906022521 | 25 | 252 | 0.0 | 0.0 | 0.00 | 0.00 | 0.00 | 93 | 1014.2 |
| 20260906021759 | 25 | 252 | 0.0 | 0.0 | 0.00 | 0.00 | 0.00 | 93 | 1014.3 |
| 20260906021259 | 25 | 252 | 0.0 | 0.0 | 0.00 | 0.00 | 0.00 | 93 | 1014.3 |
| 20260906020759 | 25 | 252 | 0.0 | 0.0 | 0.00 | 0.00 | 0.00 | 93 | 1014.1 |
| 20260906020505 | 25 | 252 | 0.0 | 0.0 | 0.00 | 0.00 | 0.00 | 92 | 1014.1 |
| 20260906015745 | 25 | 252 | 0.0 | 0.0 | 0.00 | 0.00 | 0.00 | 91 | 1014.4 |
| 20260906015732 | 26 | 252 | 0.0 | 0.0 | 0.00 | 0.00 | 0.00 | 92 | 1014.0 |
| 20260906014745 | 26 | 252 | 0.0 | 0.0 | 0.00 | 0.00 | 0.00 | 92 | 1013.9 |
| 20260906014245 | 26 | 252 | 0.0 | 0.0 | 0.00 | 0.00 | 0.00 | 91 | 1013.8 |
| 20260906013745 | 26 | 252 | 0.0 | 0.0 | 0.00 | 0.00 | 0.00 | 91 | 1013.6 |
| 20260906013245 | 26 | 252 | 0.0 | 0.0 | 0.00 | 0.00 | 0.00 | 91 | 1013.4 |
| 20260906012745 | 26 | 252 | 0.0 | 0.0 | 0.00 | 0.00 | 0.00 | 89 | 1013.4 |
| 20260906012730 | 26 | 251 | 0.0 | 0.0 | 0.00 | 0.00 | 0.00 | 89 | 1013.2 |
| 20260906011745 | 26 | 251 | 0.0 | 0.0 | 0.00 | 0.00 | 0.00 | 89 | 1013.1 |
| 20260906011245 | 26 | 252 | 0.0 | 0.0 | 0.00 | 0.00 | 0.00 | 88 | 1013.1 |
| 20260906010745 | 27 | 251 | 0.0 | 0.0 | 0.00 | 0.00 | 0.00 | 87 | 1012.9 |
| 20260906010230 | 27 | 250 | 0.0 | 1.6 | 0.00 | 0.00 | 0.00 | 87 | 1012.9 |
| 20260906005949 | 27 | 260 | 0.0 | 0.0 | 0.00 | 0.00 | 0.00 | 87 | 1012.9 |
| 20260906005230 | 27 | 260 | 0.0 | 0.0 | 0.00 | 0.00 | 0.00 | 87 | 1012.7 |
| 20260906004730 | 27 | 233 | 0.0 | 0.0 | 0.00 | 0.00 | 0.00 | 86 | 1012.7 |
| 20260906004230 | 27 | 271 | 0.0 | 1.6 | 0.00 | 0.00 | 0.00 | 85 | 1012.7 |
| 20260906003730 | 28 | 261 | 0.0 | 0.0 | 0.00 | 0.00 | 0.00 | 85 | 1012.7 |
| 20260906003230 | 27 | 251 | 3.2 | 3.2 | 0.00 | 0.00 | 0.00 | 85 | 1012.6 |
| 20260906002730 | 28 | 289 | 0.0 | 1.6 | 0.00 | 0.00 | 0.00 | 85 | 1012.5 |
| 20260906002230 | 28 | 310 | 0.0 | 0.0 | 0.00 | 0.00 | 0.00 | 86 | 1012.6 |
| 20260906001715 | 28 | 280 | 0.0 | 0.0 | 0.00 | 0.00 | 0.00 | 86 | 1012.6 |
| 20260906001215 | 28 | 240 | 0.0 | 0.0 | 0.00 | 0.00 | 0.00 | 84 | 1012.5 |
| 20260906000715 | 28 | 313 | 0.0 | 0.0 | 0.00 | 0.00 | 0.00 | 84 | 1012.4 |
| 20260906000200 | 29 | 314 | 0.0 | 0.0 | 0.00 | 0.00 | 0.00 | 84 | 1012.4 |
| 20260905235700 | 29 | 238 | 0.0 | 0.0 | 0.00 | 0.00 | 0.00 | 82 | 1012.7 |
| 20260905235200 | 29 | 326 | 0.0 | 0.0 | 0.00 | 0.00 | 0.00 | 82 | 1012.4 |
| 20260905234700 | 30 | 352 | 0.0 | 0.0 | 0.00 | 0.00 | 0.00 | 81 | 1012.2 |
| 20260905234200 | 30 | 247 | 1.6 | 6.4 | 0.00 | 0.00 | 0.00 | 78 | 1012.6 |
| 20260905233700 | 30 | 271 | 1.6 | 4.8 | 0.00 | 0.00 | 0.00 | 78 | 1012.5 |
| 20260905233200 | 30 | 271 | 0.0 | 3.2 | 0.00 | 0.00 | 0.00 | 77 | 1012.6 |
| 20260905232659 | 30 | 287 | 1.6 | 3.2 | 0.00 | 0.00 | 0.00 | 77 | 1012.3 |
| 20260905232159 | 31 | 226 | 1.6 | 3.2 | 0.00 | 0.00 | 0.00 | 75 | 1012.5 |
| 20260905231659 | 31 | 222 | 3.2 | 4.8 | 0.00 | 0.00 | 0.00 | 74 | 1012.4 |
| 20260905231159 | 31 | 305 | 0.0 | 4.8 | 0.00 | 0.00 | 0.00 | 73 | 1012.3 |
| 20260905230659 | 32 | 257 | 0.0 | 4.8 | 0.00 | 0.00 | 0.00 | 71 | 1012.2 |
| 20260905230145 | 31 | 253 | 1.6 | 1.6 | 0.00 | 0.00 | 0.00 | 71 | 1012.1 |
| 20260905225645 | 31 | 233 | 0.0 | 1.6 | 0.00 | 0.00 | 0.00 | 75 | 1012.1 |
| 20260905225145 | 31 | 233 | 0.0 | 0.0 | 0.00 | 0.00 | 0.00 | 75 | 1012.1 |
| 20260905224645 | 31 | 233 | 0.0 | 4.8 | 0.00 | 0.00 | 0.00 | 72 | 1012.1 |
| 20260905224145 | 32 | 231 | 0.0 | 1.6 | 0.00 | 0.00 | 0.00 | 74 | 1011.8 |
| 20260905223645 | 32 | 214 | 1.6 | 4.8 | 0.00 | 0.00 | 0.00 | 69 | 1011.8 |
| 20260905223145 | 32 | 216 | 0.0 | 3.2 | 0.00 | 0.00 | 0.00 | 68 | 1011.7 |
| 20260905222905 | 33 | 284 | 1.6 | 3.2 | 0.00 | 0.00 | 0.00 | 66 | 1011.6 |
| 20260905222144 | 32 | 283 | 3.2 | 4.8 | 0.00 | 0.00 | 0.00 | 66 | 1011.6 |
| 20260905221644 | 33 | 278 | 1.6 | 6.4 | 0.00 | 0.00 | 0.00 | 65 | 1011.6 |
| 20260905221144 | 33 | 260 | 1.6 | 4.8 | 0.00 | 0.00 | 0.00 | 64 | 1011.6 |
| 20260905220644 | 35 | 205 | 1.6 | 4.8 | 0.00 | 0.00 | 0.00 | 59 | 1011.6 |
| 20260905220130 | 35 | 222 | 1.6 | 1.6 | 0.00 | 0.00 | 0.00 | 55 | 1011.5 |
| 20260905215850 | 35 | 206 | 0.0 | 0.0 | 0.00 | 0.00 | 0.00 | 52 | 1011.5 |
| 20260905215129 | 35 | 299 | 0.0 | 0.0 | 0.00 | 0.00 | 0.00 | 55 | 1011.3 |
| 20260905214848 | 37 | 300 | 1.6 | 1.6 | 0.00 | 0.00 | 0.00 | 47 | 1011.2 |
| 20260905214130 | 36 | 234 | 0.0 | 0.0 | 0.00 | 0.00 | 0.00 | 46 | 1011.0 |
| 20260905213629 | 36 | 234 | 0.0 | 0.0 | 0.00 | 0.00 | 0.00 | 48 | 1011.0 |
| 20260905213129 | 37 | 232 | 0.0 | 3.2 | 0.00 | 0.00 | 0.00 | 44 | 1011.5 |
| 20260905212848 | 37 | 231 | 0.0 | 1.6 | 0.00 | 0.00 | 0.00 | 49 | 1011.2 |
| 20260905212115 | 36 | 265 | 0.0 | 0.0 | 0.00 | 0.00 | 0.00 | 46 | 1011.3 |
| 20260905211615 | 36 | 273 | 0.0 | 0.0 | 0.00 | 0.00 | 0.00 | 45 | 1011.4 |
| 20260905211115 | 37 | 272 | 1.6 | 1.6 | 0.00 | 0.00 | 0.00 | 49 | 1011.7 |
| 20260905210615 | 35 | 273 | 0.0 | 0.0 | 0.00 | 0.00 | 0.00 | 57 | 1011.5 |
| 20260905210100 | 34 | 272 | 0.0 | 0.0 | 0.00 | 0.00 | 0.00 | 55 | 1011.9 |
| 20260905205600 | 35 | 272 | 0.0 | 1.6 | 0.00 | 0.00 | 0.00 | 53 | 1011.6 |
| 20260905205059 | 36 | 272 | 0.0 | 1.6 | 0.00 | 0.00 | 0.00 | 51 | 1011.9 |
| 20260905204819 | 37 | 213 | 1.6 | 4.8 | 0.00 | 0.00 | 0.00 | 43 | 1011.6 |
| 20260905204059 | 37 | 292 | 1.6 | 1.6 | 0.00 | 0.00 | 0.00 | 44 | 1011.5 |
| 20260905203559 | 37 | 283 | 1.6 | 1.6 | 0.00 | 0.00 | 0.00 | 42 | 1011.7 |
| 20260905203059 | 37 | 284 | 1.6 | 3.2 | 0.00 | 0.00 | 0.00 | 45 | 1011.7 |
| 20260905202559 | 37 | 230 | 1.6 | 3.2 | 0.00 | 0.00 | 0.00 | 44 | 1011.8 |
| 20260905202059 | 37 | 295 | 0.0 | 1.6 | 0.00 | 0.00 | 0.00 | 43 | 1011.9 |
| 20260905201559 | 36 | 230 | 0.0 | 1.6 | 0.00 | 0.00 | 0.00 | 47 | 1011.7 |
| 20260905201059 | 36 | 39 | 0.0 | 3.2 | 0.00 | 0.00 | 0.00 | 49 | 1011.8 |
| 20260905200559 | 36 | 296 | 0.0 | 4.8 | 0.00 | 0.00 | 0.00 | 48 | 1012.2 |
| 20260905200308 | 36 | 295 | 1.6 | 3.2 | 0.00 | 0.00 | 0.00 | 48 | 1012.1 |
| 20260905195545 | 37 | 307 | 3.2 | 4.8 | 0.00 | 0.00 | 0.00 | 49 | 1012.0 |
| 20260905195045 | 37 | 303 | 1.6 | 4.8 | 0.00 | 0.00 | 0.00 | 46 | 1011.8 |
| 20260905194530 | 37 | 290 | 3.2 | 3.2 | 0.00 | 0.00 | 0.00 | 47 | 1012.0 |
| 20260905194030 | 36 | 315 | 1.6 | 1.6 | 0.00 | 0.00 | 0.00 | 49 | 1012.1 |
| 20260905193530 | 36 | 188 | 0.0 | 3.2 | 0.00 | 0.00 | 0.00 | 51 | 1012.2 |
| 20260905193030 | 36 | 258 | 1.6 | 3.2 | 0.00 | 0.00 | 0.00 | 50 | 1012.2 |
| 20260905192516 | 37 | 340 | 1.6 | 3.2 | 0.00 | 0.00 | 0.00 | 48 | 1012.4 |
| 20260905192015 | 36 | 274 | 0.0 | 3.2 | 0.00 | 0.00 | 0.00 | 48 | 1012.4 |
| 20260905191736 | 36 | 315 | 1.6 | 3.2 | 0.00 | 0.00 | 0.00 | 51 | 1012.6 |
| 20260905191237 | 36 | 315 | 3.2 | 4.8 | 0.00 | 0.00 | 0.00 | 52 | 1012.7 |
| 20260905190500 | 36 | 286 | 1.6 | 4.8 | 0.00 | 0.00 | 0.00 | 48 | 1012.8 |
| 20260905185945 | 36 | 155 | 3.2 | 4.8 | 0.00 | 0.00 | 0.00 | 48 | 1012.9 |
| 20260905185445 | 36 | 248 | 3.2 | 3.2 | 0.00 | 0.00 | 0.00 | 49 | 1012.7 |
| 20260905185204 | 36 | 303 | 3.2 | 3.2 | 0.00 | 0.00 | 0.00 | 51 | 1012.8 |
| 20260905184445 | 35 | 174 | 3.2 | 3.2 | 0.00 | 0.00 | 0.00 | 54 | 1013.2 |
| 20260905183945 | 35 | 249 | 0.0 | 1.6 | 0.00 | 0.00 | 0.00 | 56 | 1013.3 |
| 20260905183707 | 36 | 56 | 1.6 | 4.8 | 0.00 | 0.00 | 0.00 | 53 | 1013.2 |
| 20260905182945 | 36 | 304 | 3.2 | 3.2 | 0.00 | 0.00 | 0.00 | 53 | 1013.3 |
| 20260905182445 | 34 | 261 | 0.0 | 1.6 | 0.00 | 0.00 | 0.00 | 55 | 1013.5 |
| 20260905181945 | 34 | 294 | 0.0 | 1.6 | 0.00 | 0.00 | 0.00 | 59 | 1013.7 |
| 20260905181444 | 34 | 312 | 0.0 | 4.8 | 0.00 | 0.00 | 0.00 | 57 | 1013.8 |
| 20260905180945 | 34 | 224 | 0.0 | 0.0 | 0.00 | 0.00 | 0.00 | 55 | 1014.0 |
| 20260905180445 | 36 | 93 | 0.0 | 0.0 | 0.00 | 0.00 | 0.00 | 53 | 1013.9 |
| 20260905175930 | 35 | 299 | 0.0 | 1.6 | 0.00 | 0.00 | 0.00 | 52 | 1014.0 |
| 20260905175430 | 35 | 293 | 1.6 | 3.2 | 0.00 | 0.00 | 0.00 | 58 | 1014.1 |
| 20260905174930 | 35 | 252 | 1.6 | 1.6 | 0.00 | 0.00 | 0.00 | 59 | 1014.2 |
| 20260905174652 | 35 | 213 | 0.0 | 1.6 | 0.00 | 0.00 | 0.00 | 57 | 1014.3 |
| 20260905173930 | 34 | 315 | 1.6 | 4.8 | 0.00 | 0.00 | 0.00 | 59 | 1014.3 |
| 20260905173430 | 35 | 300 | 1.6 | 3.2 | 0.00 | 0.00 | 0.00 | 54 | 1014.4 |
| 20260905172930 | 35 | 216 | 0.0 | 1.6 | 0.00 | 0.00 | 0.00 | 55 | 1014.3 |
| 20260905172430 | 36 | 317 | 0.0 | 1.6 | 0.00 | 0.00 | 0.00 | 56 | 1014.3 |
| 20260905171930 | 35 | 342 | 0.0 | 1.6 | 0.00 | 0.00 | 0.00 | 59 | 1014.5 |
| 20260905171430 | 34 | 247 | 1.6 | 4.8 | 0.00 | 0.00 | 0.00 | 58 | 1014.5 |
| 20260905170916 | 34 | 313 | 3.2 | 3.2 | 0.00 | 0.00 | 0.00 | 57 | 1014.5 |
| 20260905170415 | 34 | 281 | 0.0 | 1.6 | 0.00 | 0.00 | 0.00 | 60 | 1014.6 |
| 20260905165900 | 33 | 319 | 3.2 | 3.2 | 0.00 | 0.00 | 0.00 | 59 | 1015.0 |
| 20260905165400 | 32 | 31 | 0.0 | 3.2 | 0.00 | 0.00 | 0.00 | 60 | 1014.9 |
| 20260905164900 | 33 | 310 | 0.0 | 0.0 | 0.00 | 0.00 | 0.00 | 62 | 1015.2 |
| 20260905164400 | 35 | 188 | 0.0 | 3.2 | 0.00 | 0.00 | 0.00 | 58 | 1015.1 |
| 20260905163900 | 35 | 236 | 0.0 | 1.6 | 0.00 | 0.00 | 0.00 | 57 | 1015.1 |
| 20260905163846 | 34 | 297 | 1.6 | 1.6 | 0.00 | 0.00 | 0.00 | 56 | 1015.0 |
| 20260905163122 | 34 | 297 | 3.2 | 3.2 | 0.00 | 0.00 | 0.00 | 57 | 1015.4 |
| 20260905162400 | 33 | 248 | 0.0 | 3.2 | 0.00 | 0.00 | 0.00 | 60 | 1015.4 |
| 20260905161900 | 34 | 96 | 3.2 | 4.8 | 0.00 | 0.00 | 0.00 | 60 | 1015.3 |
| 20260905161621 | 33 | 304 | 1.6 | 3.2 | 0.00 | 0.00 | 0.00 | 61 | 1015.3 |
| 20260905160900 | 33 | 329 | 0.0 | 1.6 | 0.00 | 0.00 | 0.00 | 62 | 1015.3 |
| 20260905160400 | 33 | 219 | 1.6 | 6.4 | 0.00 | 0.00 | 0.00 | 62 | 1015.5 |
| 20260905160120 | 33 | 171 | 1.6 | 3.2 | 0.00 | 0.00 | 0.00 | 64 | 1015.4 |
| 20260905155359 | 32 | 209 | 1.6 | 3.2 | 0.00 | 0.00 | 0.00 | 67 | 1015.4 |
| 20260905154900 | 32 | 257 | 3.2 | 3.2 | 0.00 | 0.00 | 0.00 | 65 | 1015.4 |
| 20260905154359 | 32 | 9 | 0.0 | 1.6 | 0.00 | 0.00 | 0.00 | 65 | 1015.2 |
| 20260905153859 | 33 | 359 | 0.0 | 4.8 | 0.00 | 0.00 | 0.00 | 64 | 1015.3 |
| 20260905153359 | 33 | 284 | 0.0 | 0.0 | 0.00 | 0.00 | 0.00 | 66 | 1015.3 |
| 20260905152859 | 32 | 204 | 1.6 | 4.8 | 0.00 | 0.00 | 0.00 | 65 | 1015.3 |
| 20260905152618 | 32 | 145 | 0.0 | 1.6 | 0.00 | 0.00 | 0.00 | 69 | 1015.5 |
| 20260905151859 | 32 | 206 | 0.0 | 1.6 | 0.00 | 0.00 | 0.00 | 67 | 1015.5 |
| 20260905151359 | 32 | 260 | 1.6 | 1.6 | 0.00 | 0.00 | 0.00 | 69 | 1015.4 |
| 20260905150859 | 31 | 309 | 0.0 | 0.0 | 0.00 | 0.00 | 0.00 | 70 | 1015.5 |
| 20260905150345 | 31 | 240 | 1.6 | 3.2 | 0.00 | 0.00 | 0.00 | 71 | 1015.5 |
| 20260905145844 | 31 | 49 | 0.0 | 1.6 | 0.00 | 0.00 | 0.00 | 72 | 1015.4 |
| 20260905145344 | 31 | 100 | 0.0 | 1.6 | 0.00 | 0.00 | 0.00 | 73 | 1015.6 |
| 20260905144845 | 30 | 307 | 0.0 | 1.6 | 0.00 | 0.00 | 0.00 | 74 | 1015.6 |
| 20260905144344 | 30 | 265 | 0.0 | 3.2 | 0.00 | 0.00 | 0.00 | 76 | 1015.9 |
| 20260905143844 | 30 | 62 | 0.0 | 0.0 | 0.00 | 0.00 | 0.00 | 76 | 1015.8 |
| 20260905143344 | 29 | 325 | 3.2 | 6.4 | 0.00 | 0.00 | 0.00 | 76 | 1015.8 |
| 20260905142844 | 28 | 316 | 1.6 | 1.6 | 0.00 | 0.00 | 0.00 | 79 | 1015.9 |
| 20260905142606 | 28 | 14 | 1.6 | 1.6 | 0.00 | 0.00 | 0.00 | 79 | 1015.9 |
| 20260905141844 | 28 | 259 | 1.6 | 3.2 | 0.00 | 0.00 | 0.00 | 81 | 1016.0 |
| 20260905141344 | 27 | 279 | 0.0 | 1.6 | 0.00 | 0.00 | 0.00 | 84 | 1016.2 |
| 20260905140844 | 27 | 273 | 0.0 | 1.6 | 0.00 | 0.00 | 0.00 | 85 | 1016.0 |
| 20260905140330 | 27 | 286 | 1.6 | 4.8 | 0.00 | 0.00 | 0.00 | 85 | 1015.9 |
| 20260905135830 | 27 | 282 | 0.0 | 0.0 | 0.00 | 0.00 | 0.00 | 88 | 1016.3 |
| 20260905135330 | 27 | 257 | 0.0 | 1.6 | 0.00 | 0.00 | 0.00 | 88 | 1016.1 |
| 20260905134830 | 26 | 267 | 0.0 | 3.2 | 0.00 | 0.00 | 0.00 | 88 | 1016.3 |
| 20260905134330 | 26 | 294 | 0.0 | 0.0 | 0.00 | 0.00 | 0.00 | 90 | 1016.4 |
| 20260905133830 | 25 | 47 | 0.0 | 0.0 | 0.00 | 0.00 | 0.00 | 92 | 1016.4 |
| 20260905133330 | 25 | 298 | 0.0 | 0.0 | 0.00 | 0.00 | 0.00 | 94 | 1016.3 |
| 20260905132830 | 25 | 305 | 0.0 | 0.0 | 0.00 | 0.00 | 0.00 | 97 | 1016.3 |
| 20260905132318 | 24 | 304 | 0.0 | 0.0 | 0.00 | 0.00 | 0.00 | 99 | 1016.5 |
| 20260905131818 | 23 | 304 | 0.0 | 0.0 | 0.00 | 0.00 | 0.00 | 99 | 1016.6 |
| 20260905131316 | 23 | 305 | 0.0 | 0.0 | 0.00 | 0.00 | 0.00 | 99 | 1016.5 |
| 20260905130815 | 23 | 305 | 0.0 | 0.0 | 0.00 | 0.00 | 0.00 | 99 | 1016.6 |
| 20260905130300 | 23 | 304 | 0.0 | 0.0 | 0.00 | 0.00 | 0.00 | 99 | 1016.6 |
| 20260905130021 | 23 | 304 | 0.0 | 0.0 | 0.00 | 0.00 | 0.00 | 99 | 1016.6 |
| 20260905125300 | 23 | 304 | 0.0 | 0.0 | 0.00 | 0.00 | 0.00 | 99 | 1016.9 |
| 20260905125019 | 23 | 304 | 0.0 | 0.0 | 0.00 | 0.00 | 0.00 | 99 | 1016.8 |
| 20260905124300 | 23 | 304 | 0.0 | 0.0 | 0.00 | 0.00 | 0.00 | 99 | 1016.9 |
| 20260905123800 | 22 | 304 | 0.0 | 0.0 | 0.00 | 0.00 | 0.00 | 99 | 1016.8 |
| 20260905123300 | 22 | 304 | 0.0 | 0.0 | 0.00 | 0.00 | 0.00 | 99 | 1016.9 |
| 20260905122759 | 22 | 304 | 0.0 | 0.0 | 0.00 | 0.00 | 0.00 | 99 | 1016.8 |
| 20260905122259 | 22 | 304 | 0.0 | 0.0 | 0.00 | 0.00 | 0.00 | 99 | 1016.6 |
| 20260905121759 | 22 | 304 | 0.0 | 0.0 | 0.00 | 0.00 | 0.00 | 99 | 1016.6 |
| 20260905121259 | 22 | 304 | 0.0 | 0.0 | 0.00 | 0.00 | 0.00 | 99 | 1016.7 |
| 20260905120759 | 22 | 304 | 0.0 | 0.0 | 0.00 | 0.00 | 0.00 | 99 | 1016.6 |
| 20260905120508 | 22 | 304 | 0.0 | 0.0 | 0.00 | 0.00 | 0.00 | 99 | 1016.9 |
| 20260905115745 | 22 | 305 | 0.0 | 0.0 | 0.00 | 0.00 | 0.00 | 99 | 1016.7 |
| 20260905115505 | 22 | 305 | 0.0 | 0.0 | 0.00 | 0.00 | 0.00 | 99 | 1016.4 |
| 20260905114745 | 22 | 305 | 0.0 | 0.0 | 0.00 | 0.00 | 0.00 | 99 | 1016.7 |
| 20260905114245 | 22 | 305 | 0.0 | 0.0 | 0.00 | 0.00 | 0.00 | 99 | 1016.5 |